Scottsdale, AZ

4:24 AM MST on October 22, 2017 (GMT -0700)
Scottsdale

Weather History for KSDL - December, 2012

Change the Weather History Date:

Monday, December 10, 2012

  Actual Average Record
Temperature  
Mean Temperature 56 °F -  
Max Temperature 63 °F 63 °F 75 °F (2004)
Min Temperature 46 °F 42 °F 34 °F (2013)
Degree Days  
Heating Degree Days 10    
Growing Degree Days 6 (Base 50)    
Moisture  
Dew Point 9 °F    
Average Humidity 17    
Maximum Humidity 29    
Minimum Humidity 11    
Precipitation  
Precipitation 0.00 in - - ()
Sea Level Pressure  
Sea Level Pressure 30.07 in    
Wind  
Wind Speed 6 mph (North)    
Max Wind Speed 15 mph    
Max Gust Speed 21 mph    
Visibility 10 miles    
Events      
Averages and records for this station are not official NWS values.
T = Trace of Precipitation, MM = Missing Value Source: NWS Daily Summary

Daily Weather History Graph

Daily Weather History Graph

Search for Another Location

Airport or City:

Trip Planner

Search our weather history database for the weather conditions in past years. The results will help you decide how hot, cold, wet, or windy it might be!

Date:

Astronomy

Dec. 10, 2012 Rise Set
Actual Time 7:21 AM MST 5:19 PM MST
Civil Twilight 6:54 AM MST 5:47 PM MST
Nautical Twilight 6:23 AM MST 6:18 PM MST
Astronomical Twilight 5:52 AM MST 6:48 PM MST
Moon 4:14 AM MST (12/10) 3:07 PM MST (12/10)
Length of Visible Light 10h 53m
Length of Day
9h 58m
Waning Crescent, 10% of the Moon is Illuminated
Dec 10
Waning Crescent
Dec 13
New
Dec 19
First Quarter
Dec 28
Full
Jan 4
Last Quarter

Hourly Weather History & Observations

Time (MST) Temp. Dew Point Humidity Pressure Visibility Wind Dir Wind Speed Gust Speed Precip Events Conditions
12:53 AM 53.1 °F 7.0 °F 16% 30.12 in 10.0 mi NNE 5.8 mph - N/A   Clear
1:53 AM 52.0 °F 7.0 °F 16% 30.12 in 10.0 mi NNE 5.8 mph - N/A   Clear
2:53 AM 51.1 °F 5.0 °F 15% 30.13 in 10.0 mi NNE 8.1 mph - N/A   Clear
3:53 AM 51.1 °F 3.9 °F 15% 30.13 in 10.0 mi NNE 13.8 mph 20.7 mph N/A   Clear
5:53 AM 50.0 °F 3.9 °F 15% 30.13 in 10.0 mi NE 15.0 mph - N/A   Clear
6:53 AM 50.0 °F 3.0 °F 15% 30.12 in 10.0 mi North 5.8 mph - N/A   Clear
7:53 AM 48.9 °F 5.0 °F 17% 30.14 in 10.0 mi North 4.6 mph - N/A   Clear
8:53 AM 52.0 °F 9.0 °F 18% 30.15 in 9.0 mi Variable 3.5 mph - N/A   Clear
9:53 AM 55.0 °F 8.1 °F 15% 30.14 in 10.0 mi SSW 5.8 mph - N/A   Clear
10:53 AM 55.9 °F 5.0 °F 13% 30.14 in 10.0 mi Calm Calm - N/A   Clear
11:53 AM 57.9 °F 5.0 °F 12% 30.11 in 10.0 mi SW 5.8 mph - N/A   Clear
12:53 PM 60.1 °F 5.0 °F 11% 30.07 in - WSW 3.5 mph - N/A   Clear
1:53 PM 62.1 °F 6.1 °F 11% 30.03 in 10.0 mi Calm Calm - N/A   Unknown
2:53 PM 62.1 °F 6.1 °F 11% 30.01 in 10.0 mi SSW 5.8 mph - N/A   Clear
3:53 PM 63.0 °F 7.0 °F 11% 29.99 in 10.0 mi WSW 5.8 mph - N/A   Clear
4:53 PM 61.0 °F 7.0 °F 12% 29.99 in 10.0 mi WSW 4.6 mph - N/A   Clear
5:53 PM 57.9 °F 10.9 °F 16% 30.00 in 10.0 mi Calm Calm - N/A   Clear
6:53 PM 57.0 °F 12.0 °F 17% 30.01 in 10.0 mi Calm Calm - N/A   Clear
7:53 PM 52.0 °F 19.0 °F 27% 30.02 in 10.0 mi NE 5.8 mph - N/A   Clear
8:53 PM 50.0 °F 17.1 °F 27% 30.02 in 10.0 mi NE 4.6 mph - N/A   Clear
9:53 PM 50.0 °F 16.0 °F 26% 30.02 in 10.0 mi Calm Calm - N/A   Clear
10:53 PM 48.0 °F 15.1 °F 27% 30.04 in 10.0 mi Calm Calm - N/A   Clear
11:53 PM 46.9 °F 16.0 °F 29% 30.03 in 10.0 mi Calm Calm - N/A   Clear